Waarnemingen

Advertentie
Mijn weer
P11-B, Nederland (6203): temperatuur & dauwpunt: 23.03.2017 20:00:00 - 29.03.2017 20:00:00 (CEST)P11-B, Nederland (6203): windsnelheid & windstoten: 23.03.2017 20:00:00 - 29.03.2017 20:00:00 (CEST)P11-B, Nederland (6203): windrichting: 23.03.2017 20:00:00 - 29.03.2017 20:00:00 (CEST)P11-B, Nederland (6203): luchtdruk: 23.03.2017 20:00:00 - 29.03.2017 20:00:00 (CEST)P11-B, Nederland (6203): zicht: 23.03.2017 20:00:00 - 29.03.2017 20:00:00 (CEST)
Datum & Tijd tt [°C] td [°C] ff [km/u] ff [kn] fx [km/u] fx [kn] dd ppp [hPa] vv [km]
29.03.2017 20:00:00 10,0 8,1 37 20 40 21 ZZW 1022,1 15
29.03.2017 19:00:00 10,0 8,2 44 24 47 25 ZZW 1021,8 13
29.03.2017 18:00:00 9,8 8,4 41 22 43 23 ZZW 1021,4 12
29.03.2017 17:00:00 9,8 8,4 42 23 40 21 ZZW 1021,7 11
29.03.2017 16:00:00 9,8 8,5 41 22 40 21 ZZW 1022,2 10
29.03.2017 15:00:00 10,0 8,6 39 21 36 19 ZW 1022,2 12
29.03.2017 14:00:00 9,9 8,4 37 20 36 19 ZW 1022,3 10
29.03.2017 13:00:00 10,0 8,5 39 21 43 23 ZW 1022,1 10
29.03.2017 12:00:00 9,9 8,3 42 23 43 23 ZW 1022,3 10
29.03.2017 11:00:00 10,1 8,3 41 22 43 23 ZW 1021,6 10
29.03.2017 10:00:00 10,1 8,2 46 25 47 25 ZW 1021,2 10
29.03.2017 09:00:00 10,0 8,0 46 25 47 25 ZW 1020,4 10
29.03.2017 08:00:00 10,2 8,1 50 27 47 25 ZW 1020,0 10
29.03.2017 07:00:00 10,0 8,1 46 25 47 25 ZZW 1019,8 10
29.03.2017 06:00:00 9,9 8,3 41 22 43 23 ZZW 1019,7 10
29.03.2017 05:00:00 9,4 8,1 39 21 40 21 ZZW 1020,1 9
29.03.2017 04:00:00 9,6 8,0 39 21 47 25 ZW 1021,0 7
29.03.2017 03:00:00 10,2 8,1 50 27 50 27 ZW 1021,0 9
29.03.2017 02:00:00 10,0 8,1 42 23 43 23 ZZW 1020,9 10
29.03.2017 01:00:00 10,2 8,1 44 24 43 23 ZW 1020,9 10
29.03.2017 00:00:00 10,0 8,0 42 23 43 23 ZW 1020,9 10
28.03.2017 23:00:00 10,3 8,2 44 24 47 25 ZW 1020,3 10
28.03.2017 22:00:00 10,2 8,6 46 25 47 25 ZW 1020,0 10
28.03.2017 21:00:00 9,8 8,4 46 25 47 25 ZZW 1019,5 9
28.03.2017 20:00:00 9,7 8,2 42 23 43 23 ZZW 1019,5 10
28.03.2017 19:00:00 9,6 7,9 39 21 40 21 ZZW 1019,6 9
28.03.2017 18:00:00 9,7 7,8 34 18 36 19 ZZW 1019,8 8
28.03.2017 17:00:00 9,3 7,2 29 16 29 16 ZZW 1020,0 7
28.03.2017 16:00:00 9,6 7,1 28 15 29 16 ZZW 1020,1 6
28.03.2017 15:00:00 9,6 6,4 28 15 29 16 - 1020,1 8
28.03.2017 14:00:00 9,6 5,9 22 12 22 12 ZZW 1020,4 10
28.03.2017 13:00:00 9,8 5,6 16 9 18 10 Z 1020,6 10
28.03.2017 12:00:00 10,5 6,3 9 5 11 6 ZW 1020,7 10
28.03.2017 11:00:00 10,1 5,8 11 6 14 8 ZW 1020,4 10
28.03.2017 10:00:00 9,8 5,7 16 9 18 10 ZZW 1019,9 10
28.03.2017 09:00:00 9,8 5,0 21 11 22 12 ZZW 1019,8 10
28.03.2017 08:00:00 10,4 5,2 18 10 22 12 ZZW 1019,7 10
28.03.2017 07:00:00 9,5 4,2 24 13 25 14 Z 1019,5 10
28.03.2017 06:00:00 10,4 5,4 21 11 18 10 ZZO 1019,6 10
28.03.2017 05:00:00 10,5 5,5 15 8 14 8 ZZO 1019,8 10
28.03.2017 04:00:00 10,0 5,6 13 7 14 8 ZO 1020,1 10
28.03.2017 03:00:00 9,7 6,5 15 8 18 10 O 1020,3 10
28.03.2017 02:00:00 9,4 7,0 18 10 18 10 O 1020,7 10
28.03.2017 01:00:00 9,3 7,5 21 11 25 14 ONO 1021,1 8
28.03.2017 00:00:00 9,2 6,9 26 14 25 14 NO 1021,3 8
27.03.2017 23:00:00 9,5 6,7 29 16 29 16 NO 1021,5 10
27.03.2017 22:00:00 9,3 6,7 28 15 25 14 NO 1021,5 10
27.03.2017 21:00:00 9,1 6,0 21 11 22 12 NO 1021,4 10
27.03.2017 20:00:00 9,2 6,0 22 12 22 12 NO 1021,2 10
27.03.2017 19:00:00 9,6 5,9 18 10 22 12 NNO 1021,2 12
27.03.2017 18:00:00 10,3 6,4 18 10 18 10 ONO 1021,4 10
27.03.2017 17:00:00 9,7 6,3 18 10 18 10 NO 1021,5 10
27.03.2017 16:00:00 9,8 6,4 21 11 18 10 ONO 1022,2 10
27.03.2017 15:00:00 9,2 6,5 18 10 22 12 ONO 1022,8 10
27.03.2017 14:00:00 8,3 5,8 26 14 29 16 O 1023,3 13
27.03.2017 13:00:00 7,8 5,3 22 12 25 14 ONO 1023,7 8
27.03.2017 12:00:00 8,2 5,8 24 13 29 16 ONO 1023,8 7
27.03.2017 11:00:00 8,0 5,4 29 16 29 16 ONO 1024,0 6
27.03.2017 10:00:00 8,0 5,9 28 15 29 16 ONO 1024,1 6
27.03.2017 09:00:00 8,0 6,0 26 14 25 14 NO 1024,2 6
27.03.2017 08:00:00 7,8 5,9 24 13 25 14 NO 1023,9 7
27.03.2017 07:00:00 7,8 5,9 26 14 25 14 ONO 1023,8 7
27.03.2017 06:00:00 7,9 6,1 22 12 22 12 NO 1023,7 7
27.03.2017 05:00:00 8,0 6,1 24 13 25 14 NO 1023,9 8
27.03.2017 04:00:00 8,1 6,2 26 14 25 14 NO 1024,4 9
27.03.2017 03:00:00 8,1 6,2 26 14 25 14 NO 1024,7 10
27.03.2017 02:00:00 8,2 6,4 28 15 29 16 NO 1025,1 12
27.03.2017 01:00:00 8,3 6,6 31 17 29 16 NO 1025,1 10
27.03.2017 00:00:00 8,2 6,3 31 17 32 18 NO 1025,3 8
26.03.2017 23:00:00 8,3 6,1 35 19 32 18 NO 1025,6 10
26.03.2017 22:00:00 8,3 6,1 34 18 32 18 NO 1025,4 10
26.03.2017 21:00:00 8,2 5,4 35 19 36 19 NO 1025,0 10
26.03.2017 20:00:00 8,3 5,5 35 19 32 18 NNO 1024,9 10
26.03.2017 19:00:00 8,5 5,3 35 19 36 19 NNO 1024,9 10
26.03.2017 18:00:00 8,5 5,4 35 19 36 19 NNO 1025,0 10
26.03.2017 17:00:00 8,5 5,4 35 19 36 19 NNO 1025,5 10
26.03.2017 16:00:00 8,3 5,2 31 17 32 18 NO 1025,7 10
26.03.2017 15:00:00 8,3 5,3 31 17 32 18 NO 1026,0 10
26.03.2017 14:00:00 8,3 5,1 31 17 32 18 NO 1026,5 10
26.03.2017 13:00:00 8,3 4,8 29 16 32 18 NO 1026,6 10
26.03.2017 12:00:00 8,0 4,1 31 17 29 16 NO 1026,8 10
26.03.2017 11:00:00 8,5 4,3 29 16 29 16 NO 1026,7 10
26.03.2017 10:00:00 8,5 4,5 26 14 29 16 NO 1026,8 10
26.03.2017 09:00:00 8,1 4,4 29 16 32 18 NO 1026,7 10
26.03.2017 08:00:00 7,9 4,4 28 15 32 18 ONO 1026,7 10
26.03.2017 07:00:00 7,9 4,8 29 16 32 18 NO 1026,3 10
26.03.2017 06:00:00 8,0 5,2 29 16 36 19 NO 1026,2 10
26.03.2017 05:00:00 7,8 5,1 35 19 40 21 NO 1026,0 10
26.03.2017 04:00:00 7,8 5,0 37 20 40 21 NO 1026,3 10
26.03.2017 03:00:00 7,8 4,8 37 20 40 21 NO 1026,4 10
26.03.2017 02:00:00 7,8 4,5 44 24 47 25 NO 1026,7 10
26.03.2017 01:00:00 7,8 4,0 46 25 47 25 NO 1027,4 10
26.03.2017 00:00:00 8,0 3,4 41 22 47 25 NO 1027,4 10
25.03.2017 23:00:00 8,1 2,2 42 23 47 25 NO 1027,7 10
25.03.2017 22:00:00 8,0 1,3 48 26 47 25 NNO 1027,7 10
25.03.2017 21:00:00 8,2 1,5 42 23 43 23 NNO 1027,8 10
25.03.2017 20:00:00 8,1 2,0 41 22 43 23 NNO 1027,7 10
25.03.2017 19:00:00 8,1 1,5 46 25 43 23 NNO 1027,6 10
25.03.2017 18:00:00 8,2 1,6 42 23 43 23 NNO 1028,1 10
25.03.2017 17:00:00 8,1 2,2 37 20 40 21 NNO 1029,2 10
25.03.2017 16:00:00 8,0 2,6 35 19 40 21 NNO 1029,7 10
25.03.2017 15:00:00 7,8 2,9 37 20 40 21 NNO 1030,6 10
25.03.2017 14:00:00 7,7 3,0 35 19 36 19 NNO 1031,4 10
25.03.2017 13:00:00 7,6 3,3 35 19 36 19 NNO 1032,0 10
25.03.2017 12:00:00 7,6 2,7 37 20 36 19 NNO 1032,6 10
25.03.2017 11:00:00 8,0 2,8 34 18 32 18 NO 1032,9 10
25.03.2017 10:00:00 8,3 3,1 34 18 32 18 NO 1032,9 10
25.03.2017 09:00:00 7,9 3,0 31 17 32 18 NO 1032,6 10
25.03.2017 08:00:00 7,8 2,7 31 17 32 18 NO 1032,4 10
25.03.2017 07:00:00 7,6 2,9 34 18 32 18 NO 1032,4 10
25.03.2017 06:00:00 7,6 2,9 31 17 32 18 NO 1032,5 10
25.03.2017 05:00:00 7,8 2,8 35 19 36 19 NO 1032,8 10
25.03.2017 04:00:00 7,8 3,2 39 21 40 21 NO 1033,0 10
25.03.2017 03:00:00 8,0 3,4 37 20 36 19 NO 1033,2 10
25.03.2017 02:00:00 8,1 3,5 35 19 36 19 NO 1033,4 10
25.03.2017 01:00:00 8,2 3,7 39 21 40 21 NO 1033,6 10
25.03.2017 00:00:00 8,4 4,1 42 23 43 23 NO 1033,4 10
24.03.2017 23:00:00 8,5 4,2 46 25 47 25 NO 1033,0 10
24.03.2017 22:00:00 8,5 4,7 46 25 47 25 NO 1032,4 10
24.03.2017 21:00:00 8,4 4,7 48 26 50 27 NO 1031,7 10
24.03.2017 20:00:00 8,3 4,8 48 26 47 25 NNO 1031,3 10
24.03.2017 19:00:00 8,4 4,7 39 21 40 21 NNO 1031,2 10
24.03.2017 18:00:00 8,6 4,3 35 19 47 25 NO 1030,9 10
24.03.2017 17:00:00 8,6 4,4 42 23 50 27 NNO 1030,8 10
24.03.2017 16:00:00 8,3 4,4 42 23 43 23 NNO 1030,6 10
24.03.2017 15:00:00 8,2 3,8 39 21 43 23 NO 1030,2 10
24.03.2017 14:00:00 8,2 4,2 42 23 43 23 NO 1030,8 10
24.03.2017 13:00:00 7,7 4,5 41 22 43 23 NO 1030,5 10
24.03.2017 12:00:00 7,1 4,4 34 18 36 19 ONO 1030,9 10
24.03.2017 11:00:00 7,1 4,0 35 19 36 19 ONO 1030,4 10
24.03.2017 10:00:00 7,0 4,0 39 21 43 23 ONO 1029,6 10
24.03.2017 09:00:00 6,8 3,9 46 25 47 25 NO 1028,1 10
24.03.2017 08:00:00 6,9 3,9 44 24 50 27 NO 1027,1 10
24.03.2017 07:00:00 6,9 3,9 50 27 50 27 NO 1026,3 10
24.03.2017 06:00:00 7,2 4,3 50 27 47 25 NO 1025,7 9
24.03.2017 05:00:00 7,3 4,4 42 23 43 23 ONO 1025,7 8
24.03.2017 04:00:00 7,5 4,6 42 23 43 23 NO 1025,5 9
24.03.2017 03:00:00 7,7 4,6 44 24 47 25 ONO 1025,3 10
24.03.2017 02:00:00 7,9 4,7 44 24 47 25 NO 1024,8 10
24.03.2017 01:00:00 8,1 4,9 48 26 50 27 NO 1023,8 10
24.03.2017 00:00:00 8,3 5,2 52 28 58 31 NO 1023,1 10
23.03.2017 23:00:00 8,5 5,5 57 31 58 31 NO 1021,9 10
23.03.2017 22:00:00 8,5 5,6 57 31 58 31 NO 1021,1 10
23.03.2017 21:00:00 8,5 5,8 55 30 54 29 NO 1020,2 10
23.03.2017 20:00:00 - - - - - - - - -

tt = temperatuur
td = dauwpunt
ff = windsnelheid
fx = windstoten
dd = windrichting
ppp = luchtdruk
vv = zicht

Weerstations in de omgeving